Location: Aciu?a
(46.2833°N, 22.4500°E)
Time: 12:20:56
(UTC+00:00)

Okean 1-7 Rocket - Pass Details

Date: 25 October 2021
Orbit: 617 x 648 km, 82.5° (Epoch: 06 December)

Event Time Altitude Azimuth Distance (km) Brightness Sun altitude
Rises 16:35:45 0° 348° (NNW) 2,911 7.1 -12.6°
Reaches altitude 10° 16:37:59 10° 347° (NNW) 2,004 6.3 -13.0°
Maximum altitude 16:42:24 71° 264° (W) 667 3.9 -13.7°
Drops below altitude 10° 16:46:49 10° 181° (S) 2,005 6.2 -14.5°
Sets 16:49:04 0° 179° (S) 2,913 7.0 -14.9°
